GW5491 Weather Reports


time (UTC)temp
C
wind
direction
speed
KPH
gust
KPH
rain 1hr
cm
rain 24hr
cm
rain mn
cm
humidity
%
barometer
mb
20260507023003 16 167 0.0 0.0 0.00 0.00 0.00 72 1017.0
20260507021508 16 167 0.0 3.2 0.00 0.00 0.00 71 1017.0
20260507020006 17 153 0.0 4.8 0.00 0.00 0.00 69 1016.8
20260507014510 17 337 0.0 4.8 0.00 0.00 0.00 69 1016.8
20260507013015 17 178 0.0 4.8 0.00 0.00 0.00 69 1016.9
20260507011503 17 165 0.0 3.2 0.00 0.00 0.00 68 1016.9
20260507010005 18 201 0.0 8.0 0.00 0.00 0.00 66 1016.8
20260507004506 18 159 0.0 3.2 0.00 0.00 0.00 64 1016.8
20260507003019 19 181 0.0 6.4 0.00 0.00 0.00 63 1016.9
20260507001523 20 195 0.0 8.0 0.00 0.00 0.00 61 1016.8
20260507000011 20 202 0.0 3.2 0.00 0.00 0.00 58 1016.9
20260506234508 20 198 0.0 3.2 0.00 0.00 0.00 59 1016.8
20260506233010 20 241 0.0 4.8 0.00 0.00 0.00 58 1016.9
20260506231516 20 143 0.0 8.0 0.00 0.00 0.00 56 1017.0
20260506230021 20 151 0.0 12.9 0.00 0.00 0.00 57 1017.1
20260506224524 21 189 0.0 8.0 0.00 0.00 0.00 57 1017.2
20260506223006 21 186 1.6 8.0 0.00 0.00 0.00 55 1017.4
20260506221512 21 137 1.6 8.0 0.00 0.00 0.00 55 1017.5
20260506220018 21 233 0.0 6.4 0.00 0.00 0.00 53 1017.8
20260506214522 21 187 0.0 4.8 0.00 0.00 0.00 52 1017.9
20260506213026 21 191 0.0 8.0 0.00 0.00 0.00 54 1018.1
20260506211511 21 170 0.0 6.4 0.00 0.00 0.00 53 1018.1
20260506210021 21 179 0.0 6.4 0.00 0.00 0.00 54 1018.2
20260506204520 21 216 0.0 0.0 0.00 0.00 0.00 54 1018.2
20260506203031 21 175 0.0 0.0 0.00 0.00 0.00 54 1018.4
20260506201509 21 191 0.0 0.0 0.00 0.00 0.00 55 1018.6
20260506200012 21 155 0.0 0.0 0.00 0.00 0.00 54 1018.7
20260506194503 21 188 0.0 0.0 0.00 0.00 0.00 56 1018.8
20260506193006 21 91 0.0 0.0 0.00 0.00 0.00 55 1018.9
20260506191506 21 201 0.0 0.0 0.00 0.00 0.00 57 1019.1
20260506190009 21 170 0.0 0.0 0.00 0.00 0.00 58 1019.2
20260506184520 21 187 0.0 0.0 0.00 0.00 0.00 59 1019.2
20260506183007 20 193 0.0 0.0 0.00 0.00 0.00 59 1019.1
20260506181507 20 170 0.0 0.0 0.00 0.00 0.00 59 1019.2
20260506180010 20 201 0.0 0.0 0.00 0.00 0.00 62 1019.2
20260506174514 19 192 0.0 0.0 0.00 0.00 0.00 63 1019.2
20260506173020 18 191 0.0 0.0 0.00 0.00 0.00 65 1019.3
20260506171511 17 192 0.0 0.0 0.00 0.00 0.00 68 1019.2
20260506170007 17 191 0.0 0.0 0.00 0.00 0.00 70 1019.4
20260506164517 16 192 0.0 0.0 0.00 0.00 0.00 73 1019.4
20260506163016 16 193 0.0 0.0 0.00 0.00 0.00 77 1019.4
20260506161520 15 193 0.0 0.0 0.00 0.00 0.00 80 1019.4
20260506160026 15 192 0.0 0.0 0.00 0.00 0.00 84 1019.4
20260506154506 13 193 0.0 0.0 0.00 0.00 0.00 87 1019.5
20260506153011 13 193 0.0 1.6 0.00 0.00 0.00 89 1019.5
20260506151529 12 193 0.0 0.0 0.00 0.00 0.00 89 1019.4
20260506150022 12 193 0.0 0.0 0.00 0.00 0.00 89 1019.4
20260506144525 11 193 0.0 0.0 0.00 0.00 0.00 89 1019.4
20260506143008 11 193 0.0 0.0 0.00 0.00 0.00 88 1019.3
20260506141516 10 193 0.0 0.0 0.00 0.00 0.00 88 1019.2
20260506140026 10 193 0.0 0.0 0.00 0.00 0.00 87 1019.2
20260506134522 9 193 0.0 0.0 0.00 0.00 0.00 86 1019.1
20260506133041 9 193 0.0 0.0 0.00 0.00 0.00 86 1019.0
20260506131517 9 193 0.0 0.0 0.00 0.00 0.00 86 1019.0
20260506130005 9 193 0.0 0.0 0.00 0.00 0.00 86 1018.8
20260506124503 10 193 0.0 0.0 0.00 0.00 0.00 86 1018.6
20260506123006 10 193 0.0 0.0 0.00 0.00 0.00 86 1018.5
20260506121508 10 193 0.0 0.0 0.00 0.00 0.00 86 1018.2
20260506120023 10 193 0.0 0.0 0.00 0.00 0.00 86 1018.1
20260506114518 10 193 0.0 0.0 0.00 0.00 0.00 86 1018.1
20260506113006 10 193 0.0 0.0 0.00 0.00 0.00 86 1018.0
20260506111506 10 193 0.0 0.0 0.00 0.00 0.00 86 1018.0
20260506110012 10 193 0.0 0.0 0.00 0.00 0.00 86 1018.0
20260506104515 10 193 0.0 0.0 0.00 0.00 0.00 86 1018.1
20260506103020 10 193 0.0 0.0 0.00 0.00 0.00 85 1018.1
20260506101504 10 193 0.0 0.0 0.00 0.00 0.00 85 1018.1
20260506100010 10 193 0.0 0.0 0.00 0.00 0.00 85 1018.2
20260506094516 10 193 0.0 0.0 0.00 0.00 0.00 85 1018.3
20260506093019 10 193 0.0 0.0 0.00 0.00 0.00 85 1018.2
20260506091521 10 193 0.0 0.0 0.00 0.00 0.00 85 1018.2
20260506090004 10 193 0.0 0.0 0.00 0.00 0.00 84 1018.5
20260506084512 10 193 0.0 0.0 0.00 0.00 0.00 84 1018.6
20260506083014 11 193 0.0 0.0 0.00 0.00 0.00 84 1018.5
20260506081526 11 193 0.0 0.0 0.00 0.00 0.00 84 1018.6
20260506073014 11 193 0.0 0.0 0.00 0.00 0.00 83 1018.7
20260506071518 11 193 0.0 0.0 0.00 0.00 0.00 83 1018.7
20260506061514 11 193 0.0 0.0 0.00 0.00 0.00 81 1018.1
20260506044522 13 193 0.0 0.0 0.00 0.00 0.00 77 1017.4
20260506043025 13 193 0.0 0.0 0.00 0.00 0.00 76 1017.2
20260506041459 14 193 0.0 0.0 0.00 0.00 0.00 74 1017.0
20260506040002 14 193 0.0 0.0 0.00 0.00 0.00 72 1017.0
20260506034503 15 193 0.0 0.0 0.00 0.00 0.00 71 1016.8
20260506033004 15 193 0.0 0.0 0.00 0.00 0.00 71 1016.5
20260506031503 15 193 0.0 0.0 0.00 0.00 0.00 70 1016.3
20260506030004 15 193 0.0 3.2 0.00 0.00 0.00 69 1016.1
20260506024502 15 193 0.0 0.0 0.00 0.00 0.00 68 1016.0